Flag for Canada Weather past 2 weeks in Red Deer, Alberta, Canada

Now
21 °F

Ice fog.


Feels Like: 21 °F
Forecast: 26 / 40 °F
Wind: 2 mph from Southwest

Location: Red Deer

Current Time: Jan 27, 2015 at 10:31:42 AM

Latest Report: Jan 27, 2015 at 10:00 AM


Visibility: 2 mi

Pressure: 29.89 "Hg

Humidity: 93%

Dew point: 19 °F

Location of Red DeerLocation

Historic Weather in Red Deer — Graph

°F

Red Deer temperature yesterday

Maximum temperature yesterday: 36 °F (at 1:00 PM)
Minimum temperature yesterday: 28 °F (at 2:00 AM)
Average temperature yesterday: 32 °F

Past Weeks' High & Low Weather Summary

 TemperatureHumidityPressure
High46 °F (Jan 25, 3:00 PM)100% (Jan 27, 1:00 AM)30.44 "Hg (Jan 27, 1:00 AM)
Low-9 °F (Jan 12, 9:00 AM)41% (Jan 16, 6:00 PM)29.51 "Hg (Jan 16, 8:00 AM)
Average27 °F73%30.00 "Hg
* Reported Jan 12 9:00 AM — Jan 27 9:00 AM, Red Deer, Weather by CustomWeather, © 2014

Note: Actual official high and low records may vary slightly from our data, if they occured in-between our weather recording intervals... More about our weather records

Advertising

Red Deer weather history for previous 24 hours

 ConditionsComfort  
Time TempWeatherWind HumidityBarometerVisibility
9:00 AM
Jan 27
23 °FIce fog.6 mph93%29.90 "Hg3 mi
8:00 AM19 °FIce fog.5 mph100%29.88 "Hg5 mi
7:00 AM21 °FHigh level clouds.2 mph93%29.88 "Hg8 mi
6:00 AM23 °FPassing clouds.5 mph100%29.86 "Hg10 mi
5:00 AM25 °FPassing clouds.2 mph93%29.87 "Hg10 mi
4:00 AM21 °FPassing clouds.2 mph100%29.87 "Hg12 mi
3:00 AM25 °FPassing clouds.3 mph100%29.87 "Hg15 mi
2:00 AM25 °FPassing clouds.5 mph93%29.86 "Hg15 mi
1:00 AM27 °FPassing clouds.3 mph100%29.85 "Hg15 mi
12:00 AM27 °FOvercast.3 mph93%29.86 "Hg15 mi
11:00 PM
Jan 26
28 °FPassing clouds.2 mph93%29.86 "Hg15 mi
10:00 PM32 °FHigh level clouds.2 mph87%29.85 "Hg15 mi
9:00 PM30 °FMostly cloudy.7 mph93%29.84 "Hg15 mi
8:00 PM32 °FOvercast.8 mph87%29.85 "Hg15 mi
7:00 PM34 °FOvercast.6 mph87%29.86 "Hg15 mi
6:00 PM36 °FPassing clouds.2 mph81%29.86 "Hg15 mi
5:00 PM34 °FMostly cloudy.8 mph87%29.87 "Hg15 mi
4:00 PM36 °FOvercast.2 mph81%29.87 "Hg15 mi
3:00 PM36 °FMostly cloudy.2 mph81%29.89 "Hg15 mi
2:00 PM36 °FMostly cloudy.2 mph81%29.90 "Hg15 mi
1:00 PM36 °FOvercast.2 mph81%29.92 "Hg15 mi
12:00 PM34 °FOvercast.No wind81%29.96 "Hg15 mi
11:00 AM32 °FPartly sunny.2 mph87%29.96 "Hg15 mi
10:00 AM32 °FPartly sunny.3 mph80%29.97 "Hg15 mi
Weather by CustomWeather, © 2014

See weather overviewHow to use our weather pages